This is the latest recevied weather packets stored in our database for station/object NQ9F. If no packets are shown the sender has not sent any weather packets the latest 10 day(s).
| Time | Temp. | Humidity | Pressure | Rain* | Wind** | Luminosity | Snow |
|---|---|---|---|---|---|---|---|
| 1777845658 | 26.11° C | 33% | 1016.3 hPa | 0 mm | - | 515 W/m² | - |
| 1777845355 | 26.11° C | 33% | 1016.2 hPa | 0 mm | - | 611 W/m² | - |
| 1777845052 | 26.67° C | 33% | 1016.4 hPa | 0 mm | - | 622 W/m² | - |
| 1777844750 | 26.11° C | 32% | 1016.4 hPa | 0 mm | - | 730 W/m² | - |
| 1777844447 | 26.11° C | 30% | 1016.7 hPa | 0 mm | - | 731 W/m² | - |
| 1777844145 | 26.67° C | 33% | 1016.6 hPa | 0 mm | - | 756 W/m² | - |
| 1777843841 | 26.11° C | 32% | 1016.8 hPa | 0 mm | - | 780 W/m² | - |
| 1777843539 | 26.11° C | 32% | 1016.8 hPa | 0 mm | - | 753 W/m² | - |
| 1777843236 | 26.11° C | 32% | 1016.9 hPa | 0 mm | - | 809 W/m² | - |
| 1777842933 | 26.11° C | 31% | 1017 hPa | 0 mm | - | 822 W/m² | - |
| 1777842629 | 26.11° C | 31% | 1016.9 hPa | 0 mm | - | 830 W/m² | - |
| 1777842326 | 26.11° C | 33% | 1017.2 hPa | 0 mm | - | 855 W/m² | - |
| 1777842021 | 26.11° C | 32% | 1017.3 hPa | 0 mm | - | 869 W/m² | - |
| 1777841718 | 26.11° C | 35% | 1017.3 hPa | 0 mm | - | 858 W/m² | - |
| 1777841415 | 26.11° C | 31% | 1017.4 hPa | 0 mm | - | 882 W/m² | - |
| 1777841112 | 26.11° C | 31% | 1017.6 hPa | 0 mm | - | 894 W/m² | - |
| 1777840809 | 26.67° C | 33% | 1017.5 hPa | 0 mm | - | 912 W/m² | - |
| 1777840506 | 26.11° C | 33% | 1017.5 hPa | 0 mm | - | 924 W/m² | - |
| 1777840203 | 26.67° C | 32% | 1017.7 hPa | 0 mm | - | 944 W/m² | - |
| 1777839901 | 26.11° C | 35% | 1017.7 hPa | 0 mm | - | 975 W/m² | - |
| 1777839599 | 26.11° C | 34% | 1018 hPa | 0 mm | - | 949 W/m² | - |
| 1777839296 | 26.11° C | 33% | 1018.1 hPa | 0 mm | - | 964 W/m² | - |
| 1777838994 | 26.11° C | 33% | 1018.1 hPa | 0 mm | - | 970 W/m² | - |
| 1777838690 | 26.11° C | 33% | 1018.2 hPa | 0 mm | - | 974 W/m² | - |
| 1777838386 | 26.11° C | 33% | 1018.2 hPa | 0 mm | - | 983 W/m² | - |
* Rain latest hour (hover to see other rain measurements)
** Current wind speed in m/s (hover to see current wind gust speed)